Location: Unspecified
(0.0000°N, 0.0000°E)
Time: 19:05:23
(UTC+00:00)

TRS 6 - Pass Details

Date: 26 February 2019
Orbit: 3570 x 3718 km, 87.3° (Epoch: 19 March)

Event Time Altitude Azimuth Distance (km) Brightness Sun altitude
Rises 20:11:51 0° 192° (SSW) 7,713 ? -29.4°
Reaches altitude 10° 20:16:28 10° 197° (SSW) 6,695 ? -30.5°
Maximum altitude 20:34:00 48° 266° (W) 4,378 ? -34.8°
Drops below altitude 10° 20:52:03 10° 337° (NNW) 6,782 ? -39.3°
Sets 20:56:57 0° 343° (NNW) 7,819 ? -40.5°
